Date,TemperatureHighF,TemperatureAvgF,TemperatureLowF,DewpointHighF,DewpointAvgF,DewpointLowF,HumidityHigh,HumidityAvg,HumidityLow,PressureMaxIn,PressureMinIn,WindSpeedMaxMPH,WindSpeedAvgMPH,GustSpeedMaxMPH,PrecipitationSumIn
2013-2-26,82.0,64.2,54.0,49.0,29.3,18.0,32,27,24,30.06,29.87,2,1,3,0.00
2013-2-27,69.0,58.8,49.0,22.0,12.3,1.0,28,17,8,30.22,30.06,13,5,23,0.00
2013-2-28,75.0,58.5,48.0,23.0,12.4,3.0,28,17,6,30.29,30.19,12,3,17,0.00
2013-3-1,82.0,63.1,47.0,34.0,26.1,18.0,35,25,16,30.29,30.13,5,1,12,0.00
2013-3-2,86.0,61.2,50.0,39.0,31.4,27.0,43,34,18,30.20,29.99,3,0,12,0.00
2013-3-3,80.0,71.2,55.0,45.0,35.0,28.0,46,28,18,29.97,29.82,3,0,7,0.00
2013-3-4,79.0,65.4,57.0,44.0,39.6,33.0,49,39,28,29.98,29.83,6,2,17,0.00
2013-3-5,80.0,63.7,52.0,45.0,40.2,38.0,63,44,24,30.01,29.88,2,0,9,0.00
2013-3-6,79.0,66.7,55.0,43.0,39.8,36.0,61,40,22,29.98,29.81,4,0,8,0.00
2013-3-7,77.0,64.8,51.0,44.0,40.8,38.0,61,43,26,29.91,29.79,8,1,13,0.00
2013-3-8,67.0,57.9,50.0,48.0,40.4,34.0,81,53,30,29.95,29.74,12,2,23,0.13
2013-3-9,70.0,58.4,47.0,42.0,37.8,35.0,68,48,32,30.05,29.94,9,2,16,0.01
2013-3-10,76.0,63.0,49.0,41.0,36.4,31.0,67,40,21,30.16,30.03,7,2,18,0.00
2013-3-11,81.0,62.4,49.0,38.0,33.0,20.0,48,35,15,30.12,22.96,3,0,10,0.00
2013-3-12,86.0,65.0,52.0,38.0,34.9,31.0,48,35,17,30.03,29.92,4,0,9,0.00
2013-3-13,93.0,72.6,57.0,44.0,37.9,33.0,44,30,17,30.06,29.91,3,0,10,0.00
2013-3-14,97.0,80.1,63.0,49.0,41.9,35.0,38,27,15,30.01,29.87,3,1,12,0.00
2013-3-15,96.0,77.5,59.0,51.0,41.9,36.0,50,30,15,29.90,29.75,3,0,9,0.00
2013-3-16,91.0,76.5,60.0,46.0,39.5,35.0,46,28,16,29.79,29.64,5,1,12,0.00
2013-3-17,92.0,75.2,57.0,50.0,40.3,34.0,58,31,16,29.82,29.70,6,1,14,0.00
2013-3-18,87.0,73.3,57.0,48.0,42.9,38.0,57,36,19,29.90,29.79,6,1,15,0.00
2013-3-19,87.0,73.1,57.0,50.0,43.8,37.0,57,37,22,29.93,29.83,3,0,9,0.00
2013-3-20,90.0,76.1,61.0,48.0,43.8,36.0,52,33,19,29.94,29.75,6,1,13,0.00
2013-3-21,86.0,75.3,67.0,47.0,40.8,35.0,40,29,21,29.77,29.61,6,1,12,0.00
2013-3-22,88.0,70.8,58.0,45.0,39.8,32.0,52,35,14,29.74,29.60,5,1,13,0.00
2013-3-23,81.0,68.1,55.0,48.0,32.3,19.0,71,32,11,29.94,29.73,9,2,18,0.00
2013-3-24,84.0,68.0,55.0,33.0,22.7,17.0,27,19,11,29.95,29.80,6,1,12,0.00
2013-3-25,85.0,64.3,52.0,34.0,25.4,22.0,32,24,12,29.91,29.84,6,0,13,0.00
2013-3-26,91.0,76.0,59.0,38.0,32.6,28.0,37,22,13,29.83,29.70,6,2,22,0.00
2013-3-27,88.0,75.7,63.0,40.0,34.2,27.0,30,22,15,29.88,29.75,5,1,12,0.00
2013-3-28,87.0,75.0,62.0,46.0,39.7,34.0,40,29,20,29.95,29.85,3,1,10,0.00
2013-3-29,90.0,73.6,59.0,44.0,38.4,26.0,54,31,14,29.98,29.89,6,2,18,0.00
2013-3-30,91.0,78.2,68.0,44.0,30.2,-99.9,38,20,7,29.96,29.84,7,2,13,0.00
2013-3-31,87.0,75.8,67.0,47.0,40.9,33.0,41,29,21,29.91,29.83,10,4,16,0.00
2013-4-1,80.0,66.8,57.0,47.0,42.6,39.0,56,43,24,29.98,29.85,7,2,13,0.00
2013-4-2,87.0,72.2,57.0,50.0,42.4,28.0,66,39,12,29.93,29.79,10,3,17,0.00
2013-4-3,92.0,77.3,61.0,43.0,38.0,32.0,47,27,12,29.95,29.84,9,3,14,0.00
2013-4-4,94.0,79.4,66.0,48.0,41.3,36.0,41,27,15,29.93,29.80,8,2,14,0.00
2013-4-5,89.0,77.1,66.0,45.0,42.4,38.0,42,30,17,29.88,29.76,7,1,16,0.00
2013-4-6,91.0,75.1,62.0,48.0,43.7,40.0,48,34,21,29.88,29.72,5,1,12,0.00
2013-4-7,92.0,77.9,64.0,53.0,46.6,42.0,54,35,20,29.80,29.59,6,1,20,0.00
2013-4-8,81.0,70.2,59.0,59.0,46.8,37.0,73,46,24,29.62,29.42,16,6,26,0.00
2013-4-9,70.0,60.5,56.0,38.0,35.8,27.0,49,41,23,29.85,29.62,8,2,15,0.00
2013-4-10,81.0,68.4,59.0,34.0,29.0,24.0,34,24,14,30.01,29.85,13,3,26,0.00
2013-4-11,92.0,72.3,54.0,36.0,29.1,22.0,36,21,12,29.91,29.62,8,2,20,0.00
2013-4-12,91.0,76.2,61.0,44.0,33.3,26.0,33,22,14,29.72,29.63,8,1,13,0.00
2013-4-13,94.0,77.0,61.0,49.0,41.8,36.0,50,31,16,29.74,29.60,8,3,18,0.00
2013-4-14,91.0,76.8,62.0,52.0,47.7,45.0,59,38,21,29.65,29.53,10,3,31,0.00
2013-4-15,86.0,72.9,63.0,54.0,48.5,39.0,70,45,26,29.70,29.59,11,3,20,0.00
2013-4-16,78.0,66.1,56.0,39.0,36.3,33.0,47,35,21,29.83,29.68,9,2,17,0.00
2013-4-17,78.0,64.6,53.0,38.0,30.6,20.0,49,31,12,30.02,29.82,9,2,21,0.00
2013-4-18,78.0,64.2,53.0,29.0,23.5,21.0,31,22,13,30.15,30.02,10,2,24,0.00
2013-4-19,87.0,69.4,52.0,35.0,25.3,19.0,28,20,11,30.12,29.87,5,1,15,0.00
2013-4-20,95.0,74.9,55.0,39.0,32.2,25.0,32,22,13,29.89,29.78,6,0,13,0.00
2013-4-21,98.0,79.2,61.0,42.0,31.9,27.0,35,20,10,29.92,29.78,7,1,16,0.00
2013-4-22,97.0,80.5,63.0,42.0,33.3,23.0,30,19,13,29.83,29.64,7,2,20,0.00
2013-4-23,94.0,77.3,62.0,49.0,36.2,18.0,45,25,12,29.81,29.67,6,1,21,0.00
2013-4-24,94.0,77.0,62.0,46.0,34.5,18.0,45,23,13,29.82,29.67,7,1,20,0.00
2013-4-25,85.0,74.3,62.0,48.0,43.5,37.0,56,34,25,29.90,29.70,7,2,15,0.00
2013-9-17,106.0,101.9,93.0,56.0,52.6,50.0,29,20,17,29.57,29.48,2,0,7,0.00
2013-9-18,87.0,86.3,86.0,50.0,49.0,48.0,29,28,26,29.58,29.57,2,1,10,0.00
2013-9-19,97.0,82.6,73.0,66.0,55.0,49.0,53,40,29,29.68,29.59,3,0,6,0.00
2013-9-20,104.0,91.4,74.0,66.0,60.0,54.0,72,39,19,29.70,29.59,3,1,13,0.00
2013-9-21,103.0,87.9,75.0,66.0,54.5,-99.9,61,35,20,29.70,29.54,6,2,17,0.00
2013-9-22,91.0,79.0,69.0,52.0,46.6,38.0,48,34,16,29.69,29.59,4,1,14,0.00
2013-9-23,94.0,78.8,68.0,47.0,42.1,38.0,36,28,17,29.79,29.69,3,0,10,0.00
2013-9-24,99.0,82.6,69.0,55.0,48.2,42.0,44,31,19,29.84,29.67,3,0,9,0.00
2013-9-25,97.0,81.8,70.0,63.0,55.8,46.0,73,45,19,29.70,29.51,6,1,15,0.00
2013-9-26,85.0,75.1,65.0,49.0,42.8,36.0,46,32,21,29.71,29.59,4,1,12,0.00
2013-10-2,96.0,89.6,78.0,62.0,56.3,52.0,47,33,27,29.81,29.69,5,2,16,0.00
2013-10-3,95.0,80.3,67.0,64.0,54.9,46.0,70,46,20,29.74,29.60,6,1,13,0.00
2013-10-4,74.0,72.2,70.0,54.0,33.7,26.0,54,27,17,29.97,29.71,7,4,17,0.00
2013-10-5,74.0,70.0,65.0,32.0,30.3,29.0,26,23,21,30.11,29.98,7,3,16,0.00
2013-10-6,92.0,74.2,66.0,36.0,31.5,29.0,26,21,12,30.04,29.88,3,0,15,0.00
2013-10-7,93.0,73.1,64.0,40.0,32.9,27.0,31,23,14,29.89,29.75,5,1,12,0.00
2013-10-8,93.0,76.9,61.0,53.0,41.6,32.0,50,30,17,29.78,29.60,5,1,12,0.00
2013-10-9,80.0,70.2,62.0,53.0,44.9,41.0,55,41,29,29.71,29.61,9,2,18,0.00
2013-10-10,72.0,63.8,58.0,50.0,42.8,38.0,69,47,33,29.91,29.70,8,2,15,0.01
2013-10-11,82.0,67.5,53.0,43.0,40.6,37.0,62,40,24,29.97,29.83,2,0,9,0.01
2013-10-12,77.0,61.3,56.0,42.0,35.9,-99.9,57,43,29,29.86,29.78,1,0,3,0.00
2013-10-18,89.0,64.1,53.0,39.0,31.1,28.0,40,30,15,29.94,29.83,3,0,9,0.00
2013-10-19,91.0,73.7,63.0,39.0,29.0,-99.9,37,22,15,29.96,29.84,3,1,10,0.00
2013-10-20,92.0,72.3,55.0,40.0,34.7,31.0,42,26,14,29.87,29.74,2,0,6,0.00
2013-10-21,90.0,70.3,58.0,41.0,38.9,37.0,48,33,17,29.89,29.79,1,0,5,0.00
2013-10-22,92.0,74.1,57.0,41.0,37.4,34.0,46,29,14,29.92,29.78,4,0,12,0.00
2013-10-23,92.0,74.1,56.0,40.0,35.7,33.0,44,27,14,29.80,29.72,5,1,12,0.00
2013-10-24,89.0,75.5,62.0,53.0,44.4,38.0,43,33,26,29.85,29.76,2,0,7,0.00
2013-10-25,90.0,75.0,58.0,58.0,47.8,40.0,73,41,21,29.99,29.89,2,0,6,0.00
2013-10-26,92.0,75.1,59.0,45.0,40.2,38.0,46,31,17,29.99,29.87,7,1,16,0.00
2013-10-27,93.0,76.1,58.0,50.0,41.6,37.0,50,31,17,29.85,29.65,5,1,12,0.00
2013-10-28,84.0,70.6,63.0,51.0,45.1,-99.9,56,43,25,29.81,29.66,6,1,16,0.00
2013-10-29,73.0,64.6,55.0,47.0,43.4,40.0,60,47,36,29.88,29.81,7,1,15,0.00
2013-10-30,76.0,63.4,51.0,44.0,40.2,37.0,67,44,27,29.98,29.88,4,0,9,0.00
2013-11-21,76.0,64.5,56.0,58.0,53.4,48.0,87,69,47,29.85,29.76,5,0,20,0.48
2013-11-22,60.0,56.1,52.0,56.0,52.6,49.0,91,88,85,29.93,29.74,7,1,14,1.16
2013-11-23,60.0,53.9,51.0,52.0,47.6,-99.9,92,84,73,30.05,29.92,4,0,10,0.07
2013-11-24,65.0,57.2,52.0,51.0,48.7,47.0,86,74,55,30.14,30.05,5,1,11,0.01
2013-11-25,68.0,56.8,48.0,48.0,45.9,44.0,87,69,43,30.19,30.11,6,0,11,0.01
2013-11-26,71.0,57.8,48.0,50.0,46.8,44.0,89,69,41,30.22,30.06,2,0,6,0.01
2013-11-27,69.0,62.7,56.0,47.0,39.6,35.0,70,44,32,30.06,29.90,6,3,17,0.00
2013-12-14,68.0,54.8,46.0,33.0,26.2,-99.9,58,36,24,30.31,30.15,7,1,14,0.00
2013-12-15,70.0,58.8,51.0,34.0,29.8,26.0,44,34,23,30.29,30.13,5,1,13,0.00
2013-12-16,76.0,59.1,49.0,36.0,31.5,27.0,48,36,23,30.17,30.05,5,1,9,0.00
2013-12-17,77.0,61.4,50.0,39.0,34.0,30.0,49,36,25,30.15,29.99,4,1,10,0.00
2013-12-18,71.0,62.6,55.0,48.0,36.3,32.0,66,38,30,29.98,29.72,4,1,10,0.00
2013-12-19,66.0,56.8,46.0,48.0,43.0,39.0,81,62,44,29.72,29.61,5,0,12,0.11
2013-12-20,66.0,54.9,49.0,47.0,44.6,39.0,87,71,39,29.73,29.61,7,1,10,0.20
2013-12-21,65.0,58.4,44.0,47.0,42.6,39.0,84,57,42,29.99,29.83,3,0,9,0.09
2013-12-22,65.0,53.2,43.0,50.0,44.1,38.0,87,72,51,30.24,30.00,1,0,1,0.00
2013-12-23,70.0,55.0,43.0,46.0,39.1,31.0,87,59,29,30.34,30.20,2,0,9,0.01
2013-12-24,72.0,58.2,47.0,42.0,36.4,31.0,59,45,30,30.20,30.07,3,0,7,0.00
2013-12-25,71.0,60.2,50.0,38.0,32.5,25.0,63,37,22,30.24,30.11,8,2,12,0.00
2013-12-26,72.0,57.2,49.0,30.0,24.4,21.0,38,29,19,30.20,30.08,5,1,12,0.00
2013-12-27,70.0,54.7,44.0,32.0,26.1,20.0,53,35,22,30.16,30.09,2,1,9,0.00